Location: Unspecified
(20.0000°S, 0.0000°E)
Time: 17:38:01
(UTC+00:00)

OTV 5 (USA 277) - Pass Details

Date: 26 May 2019
Orbit: 280 x 298 km, 54.5° (Epoch: 21 June)

Event Time Altitude Azimuth Distance (km) Brightness Sun altitude
Rises 18:04:55 0° 314° (NW) 1,979 ? -8.8°
Reaches altitude 10° 18:06:54 10° 306° (NW) 1,164 ? -9.3°
Maximum altitude 18:09:22 40° 233° (SW) 456 ? -9.8°
Drops below altitude 10° 18:11:51 10° 160° (SSE) 1,177 ? -10.4°
Enters shadow 18:12:06 - 159° (SSE) 1,276 ? -10.4°
